sat.trackr.live / text

‹ back to catalog

SAUDICOMSAT 6

NORAD 31121 · 2007-012E

PAYLOAD ACTIVE UNKNOWN

§ Identity

Operator
Country
SAUD
Launch date
2007-04-17
Launch site
TYMSC
Launch vehicle
Mass (kg)
RCS (m²)
0.07

External: N2YO · Heavens-Above · Gunter

§ Orbital elements

Epoch: 2026-09-19T16:54:00.479808Z

Period
98.45 min
Inclination
98.4224°
Eccentricity
0.0072423
Mean motion
14.62635293 rev/d
Perigee alt
633.5 km
Apogee alt
735.8 km
Semi-major
7,062.8 km
B*
8.7288e-5
RAAN
232.0370°
Arg perigee
33.4271°
Mean anomaly
327.1471°
Rev number
3,400

§ Raw data

SAUDICOMSAT 61 31121U 07012E   26262.70417222  .00000407  00000+0  87288-4 0  99982 31121  98.4224 232.0370 0072423  33.4271 327.1471 14.62635293 34007

JSON: /api/v1/satellites/31121 · /tle

For live sub-satellite position, see the globe view (requires WebGL).

§ Visibility from observer

Set your observer location to see the next 7 days of passes ≥ 10°. The values pass through the URL so the page stays shareable.

No JS? Fill the form by hand. The geolocation button needs JavaScript.